Location: Cuiry
(49.3858°N, 3.7708°E)
Time: 06:40:59
(UTC+00:00)

USA 215 - Pass Details

Date: 12 January 2026
Orbit: 1098 x 1109 km, 123.0° (Epoch: 10 January)

Event Time Altitude Azimuth Distance (km) Brightness Sun altitude
Exits shadow 19:58:06 58° 296° (WNW) 1,270 3.7 -36.3°
Drops below altitude 10° 20:03:35 10° 258° (WSW) 2,958 6.2 -37.2°
Sets 20:06:05 0° 255° (WSW) 3,913 6.9 -37.6°
